FW5469 Weather Reports


time (UTC)temp
F
wind
direction
speed
knots
gust
knots
rain 1hr
in
rain 24hr
in
rain mn
in
humidity
%
barometer
mb
20260508074555 47 0 0.9 4.3 0.00 0.00 0.00 77 1011.1
20260508073103 48 143 0.9 3.5 0.00 0.00 0.00 76 1011.1
20260508071559 48 227 0.9 2.6 0.00 0.00 0.00 74 1011.2
20260508070057 49 0 1.7 5.2 0.00 0.00 0.00 72 1011.2
20260508064602 49 244 0.9 5.2 0.00 0.00 0.00 70 1011.2
20260508063105 48 0 0.9 5.2 0.00 0.00 0.00 69 1011.1
20260508061604 48 158 0.9 4.3 0.00 0.00 0.00 69 1011.1
20260508054559 48 249 0.0 2.6 0.00 0.00 0.00 70 1011.3
20260508053103 48 233 0.9 3.5 0.00 0.00 0.00 69 1011.3
20260508051557 48 0 0.0 2.6 0.00 0.00 0.00 70 1011.6
20260508050106 48 0 0.0 1.7 0.00 0.00 0.00 70 1011.7
20260508044557 48 0 0.9 3.5 0.00 0.00 0.00 69 1011.8
20260508043104 48 229 0.0 2.6 0.00 0.00 0.00 70 1011.8
20260508041558 48 0 0.0 0.9 0.00 0.00 0.00 70 1011.8
20260508040103 48 235 0.9 3.5 0.00 0.00 0.00 69 1011.8
20260508034559 47 234 0.0 1.7 0.00 0.00 0.00 70 1011.8
20260508033059 45 238 0.0 1.7 0.00 0.00 0.00 72 1011.9
20260508031557 43 0 0.0 0.9 0.00 0.00 0.00 79 1011.8
20260508030055 41 0 0.0 0.0 0.00 0.00 0.00 81 1011.9
20260508024558 41 0 0.0 0.0 0.00 0.00 0.00 80 1011.8
20260508023054 42 0 0.0 0.0 0.00 0.00 0.00 80 1011.7
20260508021558 42 0 0.0 0.0 0.00 0.00 0.00 78 1011.7
20260508020103 43 0 0.0 0.9 0.00 0.00 0.00 75 1011.8
20260508014557 43 0 0.0 0.0 0.00 0.00 0.00 73 1011.6
20260508013056 44 0 0.0 0.0 0.00 0.00 0.00 71 1011.6
20260508011555 45 0 0.0 0.0 0.00 0.00 0.00 70 1011.4
20260508010100 47 0 0.0 0.0 0.00 0.00 0.00 65 1011.4
20260508004600 49 0 0.0 0.0 0.00 0.00 0.00 61 1011.3
20260508003058 51 0 0.0 0.0 0.00 0.00 0.00 56 1011.3
20260508001559 52 355 0.0 4.3 0.00 0.00 0.00 51 1011.2
20260508000100 54 299 1.7 9.6 0.00 0.00 0.00 48 1011.0
20260507234607 55 297 2.6 7.8 0.00 0.00 0.00 46 1010.9
20260507233100 55 305 2.6 8.7 0.00 0.00 0.00 48 1011.0
20260507231601 55 278 2.6 7.8 0.00 0.00 0.00 46 1010.9
20260507230105 56 272 2.6 10.4 0.00 0.00 0.00 47 1011.1
20260507224600 56 340 3.5 9.6 0.00 0.00 0.00 45 1011.2
20260507223056 56 293 2.6 9.6 0.00 0.00 0.00 45 1011.1
20260507221600 56 307 4.3 9.6 0.00 0.00 0.00 46 1011.2
20260507220059 56 327 3.5 9.6 0.00 0.00 0.00 44 1011.2
20260507214607 56 238 3.5 10.4 0.00 0.00 0.00 45 1011.0
20260507213057 56 248 4.3 14.8 0.00 0.00 0.00 46 1011.0
20260507211605 56 348 4.3 10.4 0.00 0.00 0.00 52 1010.9
20260507210106 56 293 2.6 9.6 0.00 0.00 0.00 55 1010.7
20260507204557 55 294 0.9 8.7 0.00 0.00 0.00 60 1010.7
20260507203110 54 17 3.5 10.4 0.00 0.00 0.00 57 1010.7
20260507201600 55 24 2.6 9.6 0.00 0.00 0.00 56 1010.6
20260507200109 55 347 1.7 11.3 0.00 0.00 0.00 56 1010.4
20260507194557 58 167 1.7 11.3 0.00 0.00 0.00 52 1010.3
20260507193059 58 153 1.7 12.2 0.00 0.00 0.00 53 1010.6
20260507191600 56 179 0.9 7.0 0.00 0.00 0.00 54 1010.6
20260507190104 57 300 2.6 7.0 0.00 0.00 0.00 59 1010.8
20260507184600 57 323 1.7 7.8 0.00 0.00 0.00 55 1010.8
20260507183058 56 0 2.6 6.1 0.00 0.00 0.00 58 1010.9
20260507181601 54 221 2.6 7.8 0.00 0.00 0.00 59 1010.9
20260507180055 54 282 2.6 6.1 0.00 0.00 0.00 55 1010.9
20260507174558 55 348 2.6 7.8 0.00 0.00 0.00 53 1010.9
20260507173103 56 264 1.7 8.7 0.00 0.00 0.00 54 1010.9
20260507171600 56 328 4.3 7.8 0.00 0.00 0.00 54 1011.0
20260507170104 55 338 2.6 8.7 0.00 0.00 0.00 56 1011.1
20260507164605 56 311 2.6 7.8 0.00 0.00 0.00 56 1011.1
20260507163056 55 335 1.7 7.8 0.00 0.00 0.00 61 1011.1
20260507161604 54 321 1.7 7.0 0.00 0.00 0.00 54 1011.2
20260507160058 55 331 0.9 4.3 0.00 0.00 0.00 57 1011.2
20260507154600 55 290 1.7 11.3 0.00 0.00 0.00 51 1011.2
20260507153111 55 309 1.7 7.8 0.00 0.00 0.00 54 1011.3
20260507151558 54 299 0.0 6.1 0.00 0.00 0.00 56 1011.2
20260507150058 54 1 2.6 7.0 0.00 0.00 0.00 58 1011.3
20260507144557 53 324 3.5 6.1 0.00 0.00 0.00 59 1011.2
20260507143100 53 72 1.7 5.2 0.00 0.00 0.00 58 1011.3
20260507141555 52 340 1.7 5.2 0.00 0.00 0.00 61 1011.4
20260507140100 51 326 0.9 2.6 0.00 0.00 0.00 67 1011.6
20260507134603 51 311 0.9 3.5 0.00 0.00 0.00 69 1011.8
20260507133129 51 308 0.9 3.5 0.00 0.00 0.00 69 1011.9
20260507131555 50 0 0.0 3.5 0.00 0.00 0.00 71 1012.0
20260507130106 49 142 0.0 2.6 0.00 0.00 0.00 73 1012.0
20260507124556 48 311 0.0 3.5 0.00 0.00 0.00 73 1012.0
20260507123055 47 146 0.9 3.5 0.00 0.00 0.00 75 1012.0
20260507121621 46 0 0.0 3.5 0.00 0.00 0.00 77 1011.8
20260507120103 46 0 0.9 4.3 0.00 0.00 0.00 78 1011.8
20260507114638 45 200 0.0 3.5 0.00 0.00 0.00 79 1011.6
20260507113056 44 233 0.9 3.5 0.00 0.00 0.00 80 1011.6
20260507111601 42 0 0.0 0.0 0.00 0.00 0.00 85 1011.6
20260507110059 41 0 0.0 0.0 0.00 0.00 0.00 85 1011.4
20260507104554 41 0 0.0 0.0 0.00 0.00 0.00 86 1011.2
20260507103055 41 0 0.0 0.0 0.00 0.00 0.00 85 1011.1
20260507101603 41 0 0.0 0.0 0.00 0.00 0.00 86 1011.1
20260507100057 41 0 0.0 0.0 0.00 0.00 0.00 86 1011.1
20260507094604 41 0 0.0 0.0 0.00 0.02 0.00 84 1011.2
20260507093054 42 0 0.0 0.0 0.00 0.02 0.00 82 1011.2
20260507091555 42 0 0.0 1.7 0.00 0.02 0.00 81 1011.1
20260507090100 42 0 0.0 1.7 0.00 0.02 0.00 84 1011.2
20260507084601 40 0 0.0 0.0 0.00 0.07 0.00 88 1011.2
20260507083056 40 0 0.0 0.0 0.00 0.07 0.00 89 1011.3
20260507081556 40 0 0.0 0.0 0.00 0.07 0.00 89 1011.4
20260507080120 39 0 0.0 0.0 0.00 0.07 0.00 89 1011.5